Hourly Data Report for March 31, 2019

MIRAMICHI RCS
NEW BRUNSWICK
Current Station Operator: ECCC - MSC

47°00'34.000" N
65°27'54.000" W
33.00 m
8100989
71744
ACQ

Download Data

Hourly Data (March 2019)
Hourly Data Report for March 31, 2019
TIME
LST
Temp Definition
°C
Dew Point Definition
°C
Rel Hum Definition
%
Precip. Amount Definition
mm

Wind Dir Definition
10's deg

Wind Spd Definition
km/h
Visibility Definition
km
Stn Press Definition
kPa
Hmdx Definition


Wind Chill Definition


Weather Definition


00:00 0.3 -2.4 82 0.0 6 3   101.25     LegendNANA
01:00 0.6 -2.3 81 0.0 6 6   101.15     LegendNANA
02:00 0.5 -1.5 86 0.0 11 6   101.05     LegendNANA
03:00 0.9 -1.5 84 0.0 36 3   100.97     LegendNANA
04:00 1.1 -1.1 85 0.0 4 3   100.89     LegendNANA
05:00 6.1 5.1 93 0.0 20 14   100.85     LegendNANA
06:00 6.3 5.1 92 0.0 18 17   100.82     LegendNANA
07:00 7.4 6.2 93 0.0 20 17   100.81     LegendNANA
08:00 8.1 6.9 92 0.0 20 22   100.76     LegendNANA
09:00 9.0 7.2 88 0.0 19 30   100.71     LegendNANA
10:00 10.0 6.8 81 0.0 20 28   100.65     LegendNANA
11:00 10.4 6.4 76 0.0 19 28   100.59     LegendNANA
12:00 10.7 7.2 79 0.0 19 28   100.51     LegendNANA
13:00 12.0 7.4 74 0.0 19 33   100.36     LegendNANA
14:00 13.8 6.7 62 0.0 19 30   100.22     LegendNANA
15:00 15.0 5.9 55 0.0 19 28   100.08     LegendNANA
16:00 14.4 5.4 55 0.0 19 24   99.98     LegendNANA
17:00 13.1 7.4 68 0.0 22 25   99.94     LegendNANA
18:00 11.8 8.0 78 0.0 20 22   99.95     LegendNANA
19:00 9.2 8.7 97 0.0 18 10   99.84     LegendNANA
20:00 8.6 8.1 97 0.0 15 7   99.75     LegendNANA
21:00 9.4 7.1 86 0.0 17 18   99.67     LegendNANA
22:00 9.0 7.2 88 0.0 17 18   99.54     LegendNANA
23:00 9.3 7.9 91 0.0 17 22   99.37     LegendNANA

Notes on Data Quality.

Legend

  • E = Estimated
  • M = Missing
  • NA = Not Available*
  • [empty] = Indicates an unobserved value
Date modified: